| time (UTC) | temp F | wind direction | speed MPH | gust MPH | rain 1hr in | rain 24hr in | rain mn in | humidity % | barometer mb |
| 20260901092617 | 62 | 218 | 7.0 | 9.0 | 0.00 | 0.00 | 0.00 | 75 | 1020.7 |
| 20260901092113 | 62 | 228 | 5.0 | 7.0 | 0.00 | 0.00 | 0.00 | 75 | 1020.7 |
| 20260901091609 | 62 | 237 | 6.0 | 8.0 | 0.00 | 0.00 | 0.00 | 74 | 1020.7 |
| 20260901091103 | 63 | 227 | 9.0 | 11.0 | 0.00 | 0.00 | 0.00 | 74 | 1021.3 |
| 20260901090603 | 63 | 219 | 9.0 | 9.0 | 0.00 | 0.00 | 0.00 | 74 | 1021.0 |
| 20260901090058 | 62 | 244 | 7.0 | 9.0 | 0.00 | 0.00 | 0.00 | 74 | 1021.0 |
| 20260901085553 | 62 | 210 | 7.0 | 9.0 | 0.00 | 0.00 | 0.00 | 75 | 1021.2 |
| 20260901085050 | 62 | 208 | 5.0 | 7.0 | 0.00 | 0.00 | 0.00 | 76 | 1021.2 |
| 20260901084545 | 62 | 211 | 4.0 | 6.0 | 0.00 | 0.00 | 0.00 | 76 | 1020.6 |
| 20260901084036 | 62 | 212 | 4.0 | 6.0 | 0.00 | 0.00 | 0.00 | 77 | 1021.4 |
| 20260901083536 | 62 | 217 | 5.0 | 7.0 | 0.00 | 0.00 | 0.00 | 75 | 1021.3 |
| 20260901083034 | 63 | 222 | 8.0 | 10.0 | 0.00 | 0.00 | 0.00 | 74 | 1021.5 |
| 20260901082529 | 62 | 217 | 9.0 | 11.0 | 0.00 | 0.00 | 0.00 | 74 | 1021.6 |
| 20260901082025 | 62 | 219 | 9.0 | 13.0 | 0.00 | 0.00 | 0.00 | 75 | 1021.5 |
| 20260901081520 | 62 | 223 | 10.0 | 11.0 | 0.00 | 0.00 | 0.00 | 75 | 1021.6 |
| 20260901081014 | 63 | 223 | 9.0 | 11.0 | 0.00 | 0.00 | 0.00 | 75 | 1021.7 |
| 20260901080514 | 63 | 234 | 9.0 | 14.0 | 0.00 | 0.00 | 0.00 | 74 | 1021.6 |
| 20260901080013 | 63 | 237 | 11.0 | 14.0 | 0.00 | 0.00 | 0.00 | 73 | 1021.7 |
| 20260901075509 | 63 | 233 | 11.0 | 15.0 | 0.00 | 0.00 | 0.00 | 73 | 1021.7 |
| 20260901075008 | 63 | 230 | 9.0 | 11.0 | 0.00 | 0.00 | 0.00 | 74 | 1021.3 |
| 20260901074503 | 63 | 235 | 7.0 | 10.0 | 0.00 | 0.00 | 0.00 | 73 | 1021.7 |
| 20260901073958 | 62 | 217 | 7.0 | 11.0 | 0.00 | 0.00 | 0.00 | 73 | 1021.3 |
| 20260901073455 | 62 | 225 | 7.0 | 8.0 | 0.00 | 0.00 | 0.00 | 76 | 1021.3 |
| 20260901072955 | 61 | 226 | 7.0 | 9.0 | 0.00 | 0.00 | 0.00 | 77 | 1021.2 |
| 20260901072450 | 61 | 215 | 7.0 | 9.0 | 0.00 | 0.00 | 0.00 | 77 | 1021.3 |
| 20260901071944 | 61 | 220 | 6.0 | 8.0 | 0.00 | 0.00 | 0.00 | 78 | 1021.6 |
| 20260901071443 | 61 | 216 | 6.0 | 8.0 | 0.00 | 0.00 | 0.00 | 79 | 1021.5 |
| 20260901070938 | 60 | 212 | 6.0 | 7.0 | 0.00 | 0.00 | 0.00 | 79 | 1021.3 |
| 20260901070433 | 60 | 204 | 6.0 | 7.0 | 0.00 | 0.00 | 0.00 | 80 | 1021.3 |
| 20260901065931 | 60 | 217 | 6.0 | 7.0 | 0.00 | 0.00 | 0.00 | 79 | 1021.2 |
| 20260901065427 | 60 | 213 | 7.0 | 8.0 | 0.00 | 0.00 | 0.00 | 79 | 1021.4 |
| 20260901064922 | 60 | 206 | 4.0 | 5.0 | 0.00 | 0.00 | 0.00 | 80 | 1021.3 |
| 20260901064419 | 60 | 202 | 3.0 | 5.0 | 0.00 | 0.00 | 0.00 | 81 | 1021.3 |
| 20260901063916 | 60 | 209 | 3.0 | 3.0 | 0.00 | 0.00 | 0.00 | 81 | 1021.6 |
| 20260901063412 | 61 | 212 | 3.0 | 3.0 | 0.00 | 0.00 | 0.00 | 80 | 1021.4 |
| 20260901062908 | 62 | 228 | 5.0 | 6.0 | 0.00 | 0.00 | 0.00 | 78 | 1021.4 |
| 20260901062403 | 62 | 192 | 4.0 | 6.0 | 0.00 | 0.00 | 0.00 | 76 | 1021.4 |
| 20260901061859 | 63 | 214 | 7.0 | 10.0 | 0.00 | 0.00 | 0.00 | 76 | 1021.6 |
| 20260901061354 | 63 | 218 | 6.0 | 7.0 | 0.00 | 0.00 | 0.00 | 73 | 1021.9 |
| 20260901060849 | 64 | 197 | 8.0 | 11.0 | 0.00 | 0.00 | 0.00 | 72 | 1021.7 |
| 20260901060345 | 64 | 166 | 10.0 | 13.0 | 0.00 | 0.00 | 0.00 | 71 | 1021.9 |
| 20260901055844 | 64 | 179 | 12.0 | 14.0 | 0.00 | 0.00 | 0.00 | 72 | 1022.2 |
| 20260901055341 | 65 | 174 | 14.0 | 16.0 | 0.00 | 0.00 | 0.00 | 71 | 1022.0 |
| 20260901054837 | 66 | 181 | 11.0 | 14.0 | 0.00 | 0.00 | 0.00 | 64 | 1022.0 |
| 20260901054334 | 66 | 162 | 12.0 | 18.0 | 0.00 | 0.00 | 0.00 | 64 | 1022.3 |
| 20260901053825 | 67 | 191 | 15.0 | 18.0 | 0.00 | 0.00 | 0.00 | 63 | 1022.5 |
| 20260901053324 | 67 | 195 | 15.0 | 22.0 | 0.00 | 0.00 | 0.00 | 62 | 1022.5 |
| 20260901052821 | 68 | 178 | 15.0 | 22.0 | 0.00 | 0.00 | 0.00 | 60 | 1022.3 |
| 20260901052316 | 68 | 165 | 19.0 | 24.0 | 0.00 | 0.00 | 0.00 | 60 | 1022.5 |
| 20260901051814 | 68 | 176 | 10.0 | 20.0 | 0.00 | 0.00 | 0.00 | 59 | 1022.5 |
| 20260901051310 | 68 | 168 | 15.0 | 21.0 | 0.00 | 0.00 | 0.00 | 57 | 1022.6 |
| 20260901050805 | 67 | 160 | 6.0 | 7.0 | 0.00 | 0.00 | 0.00 | 61 | 1022.7 |
| 20260901050300 | 67 | 161 | 9.0 | 14.0 | 0.00 | 0.00 | 0.00 | 60 | 1022.5 |
| 20260901045750 | 66 | 166 | 0.0 | 1.0 | 0.00 | 0.00 | 0.00 | 64 | 1021.9 |
| 20260901045244 | 67 | 204 | 0.0 | 0.0 | 0.00 | 0.00 | 0.00 | 63 | 1022.2 |
| 20260901044740 | 67 | 215 | 3.0 | 5.0 | 0.00 | 0.00 | 0.00 | 61 | 1022.1 |
| 20260901044236 | 68 | 212 | 0.0 | 0.0 | 0.00 | 0.00 | 0.00 | 61 | 1022.0 |
| 20260901043731 | 67 | 208 | 0.0 | 0.0 | 0.00 | 0.00 | 0.00 | 60 | 1021.9 |
| 20260901043227 | 68 | 208 | 0.0 | 0.0 | 0.00 | 0.00 | 0.00 | 61 | 1021.6 |
| 20260901042727 | 67 | 274 | 4.0 | 6.0 | 0.00 | 0.00 | 0.00 | 62 | 1021.7 |
| 20260901042226 | 67 | 203 | 1.0 | 2.0 | 0.00 | 0.00 | 0.00 | 63 | 1021.6 |
| 20260901041723 | 67 | 222 | 0.0 | 3.0 | 0.00 | 0.00 | 0.00 | 62 | 1021.6 |
| 20260901041222 | 67 | 225 | 0.0 | 3.0 | 0.00 | 0.00 | 0.00 | 62 | 1022.0 |
| 20260901040717 | 66 | 220 | 0.0 | 0.0 | 0.00 | 0.00 | 0.00 | 62 | 1021.7 |
| 20260901040217 | 66 | 207 | 0.0 | 0.0 | 0.00 | 0.00 | 0.00 | 65 | 1022.0 |
| 20260901035715 | 66 | 181 | 0.0 | 2.0 | 0.00 | 0.00 | 0.00 | 65 | 1022.0 |
| 20260901035214 | 66 | 204 | 0.0 | 0.0 | 0.00 | 0.00 | 0.00 | 64 | 1021.9 |
| 20260901034713 | 67 | 218 | 1.0 | 3.0 | 0.00 | 0.00 | 0.00 | 63 | 1021.7 |
| 20260901034209 | 67 | 220 | 4.0 | 5.0 | 0.00 | 0.00 | 0.00 | 62 | 1021.9 |
| 20260901033708 | 67 | 221 | 1.0 | 5.0 | 0.00 | 0.00 | 0.00 | 61 | 1021.7 |
| 20260901033207 | 68 | 225 | 0.0 | 0.0 | 0.00 | 0.00 | 0.00 | 60 | 1021.7 |
| 20260901032706 | 68 | 232 | 0.0 | 3.0 | 0.00 | 0.00 | 0.00 | 59 | 1021.6 |
| 20260901032201 | 68 | 223 | 0.0 | 5.0 | 0.00 | 0.00 | 0.00 | 59 | 1021.7 |
| 20260901031656 | 68 | 232 | 5.0 | 6.0 | 0.00 | 0.00 | 0.00 | 58 | 1021.7 |
| 20260901031152 | 69 | 232 | 5.0 | 7.0 | 0.00 | 0.00 | 0.00 | 58 | 1022.0 |
| 20260901030647 | 69 | 237 | 6.0 | 8.0 | 0.00 | 0.00 | 0.00 | 56 | 1021.6 |
| 20260901030141 | 69 | 238 | 7.0 | 8.0 | 0.00 | 0.00 | 0.00 | 55 | 1021.6 |
| 20260901025641 | 70 | 241 | 7.0 | 8.0 | 0.00 | 0.00 | 0.00 | 55 | 1021.6 |
| 20260901025136 | 70 | 246 | 7.0 | 9.0 | 0.00 | 0.00 | 0.00 | 54 | 1021.6 |
| 20260901024630 | 71 | 226 | 7.0 | 10.0 | 0.00 | 0.00 | 0.00 | 53 | 1021.6 |
| 20260901024129 | 70 | 239 | 8.0 | 13.0 | 0.00 | 0.00 | 0.00 | 49 | 1021.5 |
| 20260901023629 | 68 | 230 | 7.0 | 9.0 | 0.00 | 0.00 | 0.00 | 56 | 1021.3 |
| 20260901023123 | 68 | 218 | 5.0 | 6.0 | 0.00 | 0.00 | 0.00 | 60 | 1021.2 |
| 20260901022619 | 68 | 227 | 4.0 | 6.0 | 0.00 | 0.00 | 0.00 | 60 | 1021.3 |
| 20260901022114 | 69 | 223 | 4.0 | 5.0 | 0.00 | 0.00 | 0.00 | 59 | 1020.8 |
| 20260901021609 | 70 | 218 | 5.0 | 7.0 | 0.00 | 0.00 | 0.00 | 56 | 1021.0 |
| 20260901021104 | 70 | 217 | 7.0 | 8.0 | 0.00 | 0.00 | 0.00 | 54 | 1021.0 |
| 20260901020600 | 70 | 211 | 7.0 | 8.0 | 0.00 | 0.00 | 0.00 | 54 | 1021.0 |
| 20260901020055 | 71 | 220 | 7.0 | 8.0 | 0.00 | 0.00 | 0.00 | 52 | 1020.8 |
| 20260901015551 | 72 | 216 | 7.0 | 8.0 | 0.00 | 0.00 | 0.00 | 51 | 1020.9 |
| 20260901015050 | 72 | 216 | 8.0 | 9.0 | 0.00 | 0.00 | 0.00 | 49 | 1020.9 |
| 20260901014545 | 73 | 217 | 9.0 | 9.0 | 0.00 | 0.00 | 0.00 | 49 | 1021.0 |
| 20260901014042 | 73 | 203 | 7.0 | 8.0 | 0.00 | 0.00 | 0.00 | 49 | 1020.7 |
| 20260901013537 | 73 | 210 | 7.0 | 9.0 | 0.00 | 0.00 | 0.00 | 47 | 1021.0 |
| 20260901013033 | 73 | 218 | 6.0 | 7.0 | 0.00 | 0.00 | 0.00 | 48 | 1020.9 |
| 20260901012532 | 73 | 210 | 7.0 | 8.0 | 0.00 | 0.00 | 0.00 | 48 | 1020.7 |
| 20260901012028 | 73 | 221 | 7.0 | 8.0 | 0.00 | 0.00 | 0.00 | 47 | 1020.9 |
| 20260901011524 | 74 | 204 | 6.0 | 9.0 | 0.00 | 0.00 | 0.00 | 47 | 1020.8 |
| 20260901011021 | 74 | 205 | 4.0 | 7.0 | 0.00 | 0.00 | 0.00 | 47 | 1020.6 |
| 20260901010517 | 75 | 204 | 5.0 | 6.0 | 0.00 | 0.00 | 0.00 | 47 | 1021.0 |
| 20260901010016 | 75 | 198 | 4.0 | 7.0 | 0.00 | 0.00 | 0.00 | 46 | 1020.8 |
| 20260901005516 | 74 | 202 | 0.0 | 3.0 | 0.00 | 0.00 | 0.00 | 52 | 1021.0 |
| 20260901005011 | 75 | 200 | 3.0 | 3.0 | 0.00 | 0.00 | 0.00 | 52 | 1020.8 |
| 20260901004506 | 76 | 188 | 3.0 | 3.0 | 0.00 | 0.00 | 0.00 | 48 | 1020.6 |
| 20260901004000 | 76 | 191 | 3.0 | 5.0 | 0.00 | 0.00 | 0.00 | 46 | 1020.6 |
| 20260901003455 | 76 | 196 | 0.0 | 3.0 | 0.00 | 0.00 | 0.00 | 48 | 1020.8 |
| 20260901002954 | 77 | 198 | 0.0 | 3.0 | 0.00 | 0.00 | 0.00 | 46 | 1020.7 |
| 20260901002453 | 76 | 187 | 3.0 | 5.0 | 0.00 | 0.00 | 0.00 | 44 | 1020.9 |
| 20260901001948 | 75 | 199 | 3.0 | 3.0 | 0.00 | 0.00 | 0.00 | 46 | 1020.8 |
| 20260901001443 | 74 | 193 | 3.0 | 3.0 | 0.00 | 0.00 | 0.00 | 51 | 1020.7 |
| 20260901000938 | 73 | 192 | 3.0 | 5.0 | 0.00 | 0.00 | 0.00 | 52 | 1020.8 |
| 20260901000435 | 75 | 211 | 3.0 | 5.0 | 0.00 | 0.00 | 0.00 | 51 | 1020.6 |
| 20260831235932 | 75 | 218 | 3.0 | 5.0 | 0.00 | 0.00 | 0.00 | 49 | 1020.8 |
| 20260831235428 | 75 | 199 | 4.0 | 6.0 | 0.00 | 0.00 | 0.00 | 47 | 1020.8 |
| 20260831234923 | 74 | 197 | 4.0 | 6.0 | 0.00 | 0.00 | 0.00 | 48 | 1020.8 |
| 20260831234418 | 75 | 202 | 5.0 | 6.0 | 0.00 | 0.00 | 0.00 | 49 | 1020.6 |
| 20260831233913 | 75 | 213 | 5.0 | 6.0 | 0.00 | 0.00 | 0.00 | 48 | 1020.7 |
| 20260831233408 | 75 | 214 | 5.0 | 7.0 | 0.00 | 0.00 | 0.00 | 48 | 1020.6 |
| 20260831232903 | 75 | 198 | 5.0 | 6.0 | 0.00 | 0.00 | 0.00 | 47 | 1020.7 |
| 20260831232359 | 76 | 209 | 5.0 | 7.0 | 0.00 | 0.00 | 0.00 | 46 | 1020.7 |
| 20260831231855 | 77 | 214 | 5.0 | 7.0 | 0.00 | 0.00 | 0.00 | 44 | 1020.7 |
| 20260831231351 | 78 | 222 | 5.0 | 7.0 | 0.00 | 0.00 | 0.00 | 40 | 1020.8 |
| 20260831230847 | 77 | 202 | 7.0 | 9.0 | 0.00 | 0.00 | 0.00 | 37 | 1020.9 |
| 20260831230341 | 80 | 208 | 5.0 | 7.0 | 0.00 | 0.00 | 0.00 | 40 | 1020.4 |
| 20260831225841 | 81 | 168 | 7.0 | 8.0 | 0.00 | 0.00 | 0.00 | 38 | 1020.7 |
| 20260831225336 | 80 | 194 | 3.0 | 6.0 | 0.00 | 0.00 | 0.00 | 44 | 1020.6 |
| 20260831224832 | 82 | 242 | 7.0 | 9.0 | 0.00 | 0.00 | 0.00 | 43 | 1020.7 |
| 20260831224326 | 81 | 192 | 6.0 | 8.0 | 0.00 | 0.00 | 0.00 | 35 | 1020.3 |
| 20260831223821 | 81 | 211 | 7.0 | 11.0 | 0.00 | 0.00 | 0.00 | 36 | 1020.4 |
| 20260831223318 | 83 | 229 | 4.0 | 6.0 | 0.00 | 0.00 | 0.00 | 36 | 1020.6 |
| 20260831222814 | 83 | 192 | 3.0 | 7.0 | 0.00 | 0.00 | 0.00 | 31 | 1020.2 |
| 20260831222310 | 83 | 226 | 8.0 | 9.0 | 0.00 | 0.00 | 0.00 | 34 | 1020.4 |
| 20260831221804 | 83 | 178 | 9.0 | 10.0 | 0.00 | 0.00 | 0.00 | 32 | 1020.4 |
| 20260831221300 | 82 | 226 | 10.0 | 11.0 | 0.00 | 0.00 | 0.00 | 38 | 1020.3 |
| 20260831220800 | 82 | 213 | 8.0 | 13.0 | 0.00 | 0.00 | 0.00 | 35 | 1020.8 |
| 20260831220255 | 82 | 222 | 8.0 | 10.0 | 0.00 | 0.00 | 0.00 | 40 | 1020.6 |
| 20260831215750 | 83 | 182 | 7.0 | 9.0 | 0.00 | 0.00 | 0.00 | 34 | 1020.7 |
| 20260831215246 | 82 | 201 | 8.0 | 10.0 | 0.00 | 0.00 | 0.00 | 34 | 1020.7 |
| 20260831214743 | 82 | 252 | 8.0 | 13.0 | 0.00 | 0.00 | 0.00 | 41 | 1021.0 |
| 20260831214240 | 83 | 214 | 7.0 | 8.0 | 0.00 | 0.00 | 0.00 | 39 | 1020.7 |
| 20260831213735 | 82 | 216 | 11.0 | 11.0 | 0.00 | 0.00 | 0.00 | 35 | 1020.9 |
| 20260831213232 | 83 | 220 | 11.0 | 14.0 | 0.00 | 0.00 | 0.00 | 35 | 1020.8 |
| 20260831212731 | 82 | 190 | 5.0 | 6.0 | 0.00 | 0.00 | 0.00 | 31 | 1021.2 |
| 20260831212228 | 83 | 246 | 9.0 | 11.0 | 0.00 | 0.00 | 0.00 | 42 | 1021.0 |
| 20260831211726 | 82 | 189 | 2.0 | 7.0 | 0.00 | 0.00 | 0.00 | 33 | 1021.4 |
| 20260831211222 | 81 | 229 | 9.0 | 13.0 | 0.00 | 0.00 | 0.00 | 39 | 1021.3 |
| 20260831210717 | 80 | 191 | 2.0 | 5.0 | 0.00 | 0.00 | 0.00 | 41 | 1021.4 |
| 20260831210213 | 79 | 164 | 5.0 | 10.0 | 0.00 | 0.00 | 0.00 | 35 | 1021.4 |
| 20260831205712 | 78 | 215 | 12.0 | 14.0 | 0.00 | 0.00 | 0.00 | 41 | 1021.5 |
| 20260831205209 | 79 | 220 | 6.0 | 11.0 | 0.00 | 0.00 | 0.00 | 38 | 1021.5 |
| 20260831204708 | 80 | 220 | 6.0 | 8.0 | 0.00 | 0.00 | 0.00 | 41 | 1021.5 |
| 20260831204208 | 81 | 222 | 8.0 | 14.0 | 0.00 | 0.00 | 0.00 | 38 | 1021.7 |
| 20260831203702 | 80 | 206 | 5.0 | 8.0 | 0.00 | 0.00 | 0.00 | 38 | 1021.7 |
| 20260831203201 | 81 | 219 | 10.0 | 13.0 | 0.00 | 0.00 | 0.00 | 36 | 1021.9 |
| 20260831202700 | 81 | 257 | 9.0 | 14.0 | 0.00 | 0.00 | 0.00 | 32 | 1021.7 |
| 20260831202155 | 81 | 234 | 4.0 | 9.0 | 0.00 | 0.00 | 0.00 | 32 | 1021.6 |
| 20260831201655 | 81 | 296 | 7.0 | 9.0 | 0.00 | 0.00 | 0.00 | 30 | 1021.9 |
| 20260831201154 | 81 | 288 | 9.0 | 14.0 | 0.00 | 0.00 | 0.00 | 29 | 1021.9 |
| 20260831200651 | 82 | 271 | 8.0 | 18.0 | 0.00 | 0.00 | 0.00 | 33 | 1021.9 |
| 20260831200150 | 82 | 277 | 8.0 | 17.0 | 0.00 | 0.00 | 0.00 | 31 | 1021.7 |
| 20260831195646 | 82 | 247 | 10.0 | 11.0 | 0.00 | 0.00 | 0.00 | 28 | 1022.1 |
| 20260831195141 | 82 | 257 | 9.0 | 11.0 | 0.00 | 0.00 | 0.00 | 29 | 1022.0 |
| 20260831194636 | 81 | 199 | 5.0 | 10.0 | 0.00 | 0.00 | 0.00 | 36 | 1022.3 |
| 20260831194131 | 81 | 264 | 7.0 | 14.0 | 0.00 | 0.00 | 0.00 | 42 | 1022.2 |
| 20260831193626 | 81 | 238 | 9.0 | 15.0 | 0.00 | 0.00 | 0.00 | 38 | 1022.1 |
| 20260831193121 | 80 | 242 | 5.0 | 6.0 | 0.00 | 0.00 | 0.00 | 38 | 1022.1 |
| 20260831192616 | 80 | 243 | 5.0 | 7.0 | 0.00 | 0.00 | 0.00 | 39 | 1022.2 |
| 20260831192112 | 80 | 228 | 6.0 | 10.0 | 0.00 | 0.00 | 0.00 | 35 | 1022.3 |
| 20260831191607 | 80 | 224 | 9.0 | 16.0 | 0.00 | 0.00 | 0.00 | 34 | 1022.3 |
| 20260831191103 | 80 | 206 | 11.0 | 16.0 | 0.00 | 0.00 | 0.00 | 38 | 1022.6 |
| 20260831190558 | 80 | 228 | 9.0 | 16.0 | 0.00 | 0.00 | 0.00 | 41 | 1022.6 |
| 20260831190056 | 80 | 231 | 9.0 | 15.0 | 0.00 | 0.00 | 0.00 | 40 | 1022.5 |
| 20260831185553 | 80 | 250 | 9.0 | 15.0 | 0.00 | 0.00 | 0.00 | 36 | 1022.3 |
| 20260831185048 | 80 | 237 | 12.0 | 14.0 | 0.00 | 0.00 | 0.00 | 39 | 1022.3 |
| 20260831184548 | 79 | 213 | 8.0 | 14.0 | 0.00 | 0.00 | 0.00 | 40 | 1022.7 |
| 20260831184044 | 79 | 221 | 9.0 | 13.0 | 0.00 | 0.00 | 0.00 | 42 | 1022.7 |
| 20260831183542 | 79 | 229 | 7.0 | 10.0 | 0.00 | 0.00 | 0.00 | 38 | 1022.7 |
| 20260831183037 | 78 | 219 | 5.0 | 9.0 | 0.00 | 0.00 | 0.00 | 36 | 1022.7 |
| 20260831182536 | 77 | 208 | 5.0 | 8.0 | 0.00 | 0.00 | 0.00 | 44 | 1022.8 |
| 20260831182033 | 78 | 231 | 8.0 | 11.0 | 0.00 | 0.00 | 0.00 | 46 | 1022.9 |
| 20260831181532 | 77 | 210 | 5.0 | 6.0 | 0.00 | 0.00 | 0.00 | 39 | 1022.9 |
| 20260831181032 | 77 | 271 | 5.0 | 7.0 | 0.00 | 0.00 | 0.00 | 40 | 1023.2 |
| 20260831180527 | 77 | 243 | 5.0 | 7.0 | 0.00 | 0.00 | 0.00 | 41 | 1022.9 |
| 20260831180022 | 77 | 272 | 9.0 | 13.0 | 0.00 | 0.00 | 0.00 | 41 | 1023.2 |
| 20260831175517 | 77 | 276 | 11.0 | 15.0 | 0.00 | 0.00 | 0.00 | 41 | 1023.2 |
| 20260831175015 | 78 | 241 | 6.0 | 10.0 | 0.00 | 0.00 | 0.00 | 42 | 1023.2 |
| 20260831174509 | 78 | 259 | 6.0 | 13.0 | 0.00 | 0.00 | 0.00 | 38 | 1023.0 |
| 20260831174009 | 77 | 261 | 8.0 | 9.0 | 0.00 | 0.00 | 0.00 | 40 | 1023.3 |
| 20260831173507 | 77 | 261 | 8.0 | 10.0 | 0.00 | 0.00 | 0.00 | 41 | 1022.9 |
| 20260831173003 | 77 | 203 | 4.0 | 8.0 | 0.00 | 0.00 | 0.00 | 41 | 1023.3 |
| 20260831172458 | 76 | 233 | 7.0 | 11.0 | 0.00 | 0.00 | 0.00 | 43 | 1023.0 |
| 20260831171953 | 76 | 276 | 8.0 | 9.0 | 0.00 | 0.00 | 0.00 | 40 | 1023.2 |
| 20260831171449 | 76 | 224 | 5.0 | 9.0 | 0.00 | 0.00 | 0.00 | 41 | 1023.3 |
| 20260831170946 | 76 | 234 | 8.0 | 11.0 | 0.00 | 0.00 | 0.00 | 41 | 1023.2 |
| 20260831170442 | 76 | 258 | 9.0 | 10.0 | 0.00 | 0.00 | 0.00 | 42 | 1023.2 |
| 20260831165938 | 76 | 267 | 10.0 | 14.0 | 0.00 | 0.00 | 0.00 | 43 | 1023.2 |
| 20260831165434 | 76 | 261 | 6.0 | 15.0 | 0.00 | 0.00 | 0.00 | 42 | 1023.2 |
| 20260831164931 | 76 | 264 | 10.0 | 17.0 | 0.00 | 0.00 | 0.00 | 42 | 1023.3 |
| 20260831164426 | 76 | 298 | 9.0 | 16.0 | 0.00 | 0.00 | 0.00 | 41 | 1023.2 |
| 20260831163921 | 75 | 272 | 7.0 | 15.0 | 0.00 | 0.00 | 0.00 | 42 | 1023.3 |
| 20260831163416 | 76 | 303 | 7.0 | 16.0 | 0.00 | 0.00 | 0.00 | 41 | 1023.3 |
| 20260831162915 | 76 | 297 | 10.0 | 17.0 | 0.00 | 0.00 | 0.00 | 43 | 1023.0 |
| 20260831162411 | 75 | 281 | 9.0 | 13.0 | 0.00 | 0.00 | 0.00 | 43 | 1023.4 |
| 20260831161909 | 74 | 316 | 15.0 | 18.0 | 0.00 | 0.00 | 0.00 | 44 | 1022.9 |
| 20260831161406 | 74 | 298 | 13.0 | 16.0 | 0.00 | 0.00 | 0.00 | 44 | 1023.0 |
| 20260831160901 | 73 | 272 | 9.0 | 13.0 | 0.00 | 0.00 | 0.00 | 47 | 1023.4 |
| 20260831160356 | 73 | 224 | 7.0 | 21.0 | 0.00 | 0.00 | 0.00 | 50 | 1023.4 |
| 20260831155851 | 71 | 243 | 13.0 | 15.0 | 0.00 | 0.00 | 0.00 | 50 | 1023.3 |
| 20260831155350 | 71 | 233 | 8.0 | 15.0 | 0.00 | 0.00 | 0.00 | 52 | 1023.5 |
| 20260831154846 | 70 | 248 | 5.0 | 11.0 | 0.00 | 0.00 | 0.00 | 55 | 1023.4 |
| 20260831154343 | 70 | 239 | 5.0 | 9.0 | 0.00 | 0.00 | 0.00 | 54 | 1023.3 |
| 20260831153841 | 69 | 237 | 4.0 | 6.0 | 0.00 | 0.00 | 0.00 | 54 | 1023.2 |
| 20260831153337 | 69 | 272 | 8.0 | 10.0 | 0.00 | 0.00 | 0.00 | 51 | 1023.3 |
| 20260831152833 | 69 | 243 | 9.0 | 10.0 | 0.00 | 0.00 | 0.00 | 51 | 1023.3 |
| 20260831152328 | 69 | 247 | 7.0 | 9.0 | 0.00 | 0.00 | 0.00 | 51 | 1022.9 |
| 20260831151823 | 69 | 284 | 7.0 | 9.0 | 0.00 | 0.00 | 0.00 | 51 | 1023.2 |
| 20260831151322 | 69 | 304 | 9.0 | 10.0 | 0.00 | 0.00 | 0.00 | 49 | 1023.3 |
| 20260831150818 | 68 | 243 | 5.0 | 6.0 | 0.00 | 0.00 | 0.00 | 53 | 1023.3 |
| 20260831150313 | 68 | 259 | 5.0 | 8.0 | 0.00 | 0.00 | 0.00 | 54 | 1023.0 |
| 20260831145806 | 69 | 263 | 7.0 | 9.0 | 0.00 | 0.00 | 0.00 | 51 | 1023.2 |
| 20260831145306 | 69 | 242 | 5.0 | 8.0 | 0.00 | 0.00 | 0.00 | 50 | 1023.0 |
| 20260831144758 | 70 | 282 | 9.0 | 14.0 | 0.00 | 0.00 | 0.00 | 48 | 1022.9 |
| 20260831144254 | 69 | 259 | 14.0 | 18.0 | 0.00 | 0.00 | 0.00 | 52 | 1023.0 |
| 20260831143754 | 68 | 279 | 11.0 | 15.0 | 0.00 | 0.00 | 0.00 | 52 | 1022.9 |
| 20260831143249 | 68 | 230 | 10.0 | 14.0 | 0.00 | 0.00 | 0.00 | 55 | 1022.7 |
| 20260831142744 | 67 | 239 | 8.0 | 10.0 | 0.00 | 0.00 | 0.00 | 56 | 1022.6 |
| 20260831142239 | 66 | 248 | 11.0 | 16.0 | 0.00 | 0.00 | 0.00 | 58 | 1022.7 |
| 20260831141734 | 65 | 248 | 4.0 | 8.0 | 0.00 | 0.00 | 0.00 | 56 | 1022.7 |
| 20260831141229 | 64 | 223 | 5.0 | 8.0 | 0.00 | 0.00 | 0.00 | 60 | 1022.5 |
| 20260831140728 | 63 | 275 | 5.0 | 8.0 | 0.00 | 0.00 | 0.00 | 63 | 1022.5 |
| 20260831140223 | 63 | 306 | 6.0 | 7.0 | 0.00 | 0.00 | 0.00 | 63 | 1022.6 |
| 20260831135721 | 63 | 292 | 7.0 | 7.0 | 0.00 | 0.00 | 0.00 | 62 | 1022.6 |
| 20260831135217 | 63 | 277 | 4.0 | 8.0 | 0.00 | 0.00 | 0.00 | 61 | 1022.5 |
| 20260831134712 | 62 | 278 | 6.0 | 9.0 | 0.00 | 0.00 | 0.00 | 60 | 1022.6 |
| 20260831134209 | 62 | 279 | 5.0 | 7.0 | 0.00 | 0.00 | 0.00 | 61 | 1022.5 |
| 20260831133707 | 62 | 285 | 6.0 | 9.0 | 0.00 | 0.00 | 0.00 | 62 | 1022.3 |
| 20260831133202 | 60 | 226 | 7.0 | 10.0 | 0.00 | 0.00 | 0.00 | 61 | 1022.5 |
| 20260831132657 | 59 | 260 | 7.0 | 9.0 | 0.00 | 0.00 | 0.00 | 66 | 1022.5 |
| 20260831132156 | 59 | 279 | 9.0 | 10.0 | 0.00 | 0.00 | 0.00 | 67 | 1022.5 |
| 20260831131651 | 59 | 310 | 6.0 | 8.0 | 0.00 | 0.00 | 0.00 | 67 | 1022.1 |
| 20260831131148 | 59 | 291 | 9.0 | 10.0 | 0.00 | 0.00 | 0.00 | 66 | 1022.5 |
| 20260831130643 | 60 | 308 | 9.0 | 9.0 | 0.00 | 0.00 | 0.00 | 65 | 1022.2 |
| 20260831130138 | 59 | 285 | 7.0 | 9.0 | 0.00 | 0.00 | 0.00 | 64 | 1022.1 |
| 20260831125636 | 59 | 266 | 7.0 | 10.0 | 0.00 | 0.00 | 0.00 | 64 | 1022.1 |
| 20260831125133 | 59 | 307 | 8.0 | 10.0 | 0.00 | 0.00 | 0.00 | 64 | 1022.0 |
| 20260831124628 | 60 | 288 | 6.0 | 8.0 | 0.00 | 0.00 | 0.00 | 63 | 1022.0 |
| 20260831124124 | 61 | 283 | 5.0 | 8.0 | 0.00 | 0.00 | 0.00 | 62 | 1022.0 |
| 20260831123624 | 63 | 296 | 7.0 | 11.0 | 0.00 | 0.00 | 0.00 | 58 | 1022.0 |
| 20260831123123 | 62 | 281 | 11.0 | 14.0 | 0.00 | 0.00 | 0.00 | 57 | 1022.1 |
| 20260831122623 | 62 | 251 | 7.0 | 14.0 | 0.00 | 0.00 | 0.00 | 57 | 1021.6 |
| 20260831122119 | 61 | 263 | 10.0 | 14.0 | 0.00 | 0.00 | 0.00 | 60 | 1021.6 |
| 20260831121617 | 61 | 269 | 9.0 | 11.0 | 0.00 | 0.00 | 0.00 | 61 | 1021.7 |
| 20260831121114 | 61 | 294 | 11.0 | 15.0 | 0.00 | 0.00 | 0.00 | 60 | 1021.6 |
| 20260831120609 | 60 | 276 | 8.0 | 15.0 | 0.00 | 0.00 | 0.00 | 61 | 1021.6 |
| 20260831120104 | 59 | 244 | 11.0 | 13.0 | 0.00 | 0.00 | 0.00 | 62 | 1021.5 |
| 20260831115600 | 59 | 265 | 8.0 | 11.0 | 0.00 | 0.00 | 0.00 | 64 | 1021.4 |
| 20260831115055 | 60 | 305 | 7.0 | 10.0 | 0.00 | 0.00 | 0.00 | 62 | 1021.9 |
| 20260831114554 | 60 | 307 | 11.0 | 13.0 | 0.00 | 0.00 | 0.00 | 58 | 1021.5 |
| 20260831114049 | 61 | 286 | 7.0 | 8.0 | 0.00 | 0.00 | 0.00 | 61 | 1021.4 |
| 20260831113548 | 63 | 299 | 9.0 | 10.0 | 0.00 | 0.00 | 0.00 | 56 | 1021.5 |
| 20260831113044 | 62 | 287 | 7.0 | 9.0 | 0.00 | 0.00 | 0.00 | 56 | 1021.2 |
| 20260831112543 | 62 | 266 | 8.0 | 9.0 | 0.00 | 0.00 | 0.00 | 58 | 1021.2 |
| 20260831112038 | 62 | 257 | 9.0 | 11.0 | 0.00 | 0.00 | 0.00 | 57 | 1021.2 |
| 20260831111535 | 63 | 244 | 7.0 | 10.0 | 0.00 | 0.00 | 0.00 | 57 | 1021.2 |
| 20260831111030 | 63 | 227 | 8.0 | 11.0 | 0.00 | 0.00 | 0.00 | 55 | 1021.2 |
| 20260831110525 | 62 | 284 | 12.0 | 18.0 | 0.00 | 0.00 | 0.00 | 55 | 1021.2 |
| 20260831110020 | 62 | 275 | 13.0 | 18.0 | 0.00 | 0.00 | 0.00 | 58 | 1021.0 |
| 20260831105519 | 61 | 264 | 15.0 | 18.0 | 0.00 | 0.00 | 0.00 | 59 | 1020.8 |
| 20260831105015 | 59 | 284 | 9.0 | 14.0 | 0.00 | 0.00 | 0.00 | 63 | 1020.9 |
| 20260831104511 | 59 | 294 | 9.0 | 11.0 | 0.00 | 0.00 | 0.00 | 65 | 1020.9 |
| 20260831104007 | 60 | 262 | 4.0 | 9.0 | 0.00 | 0.00 | 0.00 | 65 | 1020.9 |
| 20260831103506 | 60 | 254 | 4.0 | 7.0 | 0.00 | 0.00 | 0.00 | 65 | 1020.8 |
| 20260831103002 | 60 | 280 | 3.0 | 6.0 | 0.00 | 0.00 | 0.00 | 64 | 1020.8 |
| 20260831102457 | 59 | 217 | 2.0 | 5.0 | 0.00 | 0.00 | 0.00 | 66 | 1020.8 |
| 20260831101952 | 58 | 197 | 1.0 | 5.0 | 0.00 | 0.00 | 0.00 | 68 | 1020.8 |
| 20260831101447 | 56 | 180 | 0.0 | 2.0 | 0.00 | 0.00 | 0.00 | 74 | 1020.6 |
| 20260831100943 | 56 | 196 | 5.0 | 5.0 | 0.00 | 0.00 | 0.00 | 77 | 1020.4 |
| 20260831100439 | 56 | 209 | 1.0 | 3.0 | 0.00 | 0.00 | 0.00 | 76 | 1020.7 |
| 20260831095934 | 56 | 207 | 3.0 | 3.0 | 0.00 | 0.00 | 0.00 | 76 | 1020.7 |
| 20260831095433 | 56 | 216 | 3.0 | 5.0 | 0.00 | 0.00 | 0.00 | 79 | 1020.8 |
| 20260831094928 | 57 | 211 | 3.0 | 5.0 | 0.00 | 0.00 | 0.00 | 75 | 1020.4 |
| 20260831094424 | 56 | 217 | 3.0 | 3.0 | 0.00 | 0.00 | 0.00 | 72 | 1020.4 |
| 20260831093920 | 56 | 242 | 2.0 | 2.0 | 0.00 | 0.00 | 0.00 | 76 | 1020.6 |
| 20260831093414 | 56 | 272 | 3.0 | 5.0 | 0.00 | 0.00 | 0.00 | 75 | 1020.2 |
| 20260831092911 | 56 | 287 | 4.0 | 6.0 | 0.00 | 0.00 | 0.00 | 76 | 1020.4 |